Hors Challenge

Le Trail Des Pompiers De Liège (21.00 km)

samedi 06 novembre 2021

Vous pouvez trouver Le classement original sur : http://ultratiming.be  
 
LE TRAIL DES POMPIERS DE LIÈGE
DISTANCE : 21.00 km
samedi 06 novembre 2021
 
Place Dos NOM Catégorie Pl/cat Temps Temps/km Vitesse
01:00:00              
1 7337 REDING FRANÇOIS SEH 1 01:34:23 04:30 13.35
2 7361 VAN HAREN PIERRE SEH 2 01:37:28 04:38 12.93
3 7208 BERNARD PIERRE SEH 3 01:37:50 04:40 12.88
4 7581 SPINEUX NICOLAS SEH 4 01:40:24 04:47 12.55
5 7375 VINCENT ADRIEN ESPH 1 01:40:56 04:48 12.48
6 7263 GEORIS SÉBASTIEN V1H 1 01:41:54 04:51 12.37
7 7214 BOSTEN RALPH V2H 1 01:46:14 05:04 11.86
8 7317 NAIT EL CADI SOUFIANE SEH 5 01:47:59 05:09 11.67
9 7205 BAUMANS BENOIT V1H 2 01:48:00 05:09 11.67
10 7215 BOVENS LAURENT SEH 6 01:48:38 05:10 11.60
11 7219 CHAPA BENJAMIN V2H 2 01:48:45 05:11 11.59
12 7296 LECOMTE CHRISTOPHE V1H 3 01:49:45 05:14 11.48
13 7207 BERGHMANS WOUTER SEH 7 01:49:53 05:14 11.47
14 7270 GREGOIRE JOEL V1H 4 01:50:08 05:15 11.44
15 7226 CORBUSIER PHILIPPE V1H 5 01:50:26 05:16 11.41
16 7350 SCHOUMACKERS BENOÎT V1H 6 01:51:32 05:19 11.30
17 7345 SACRÉ VINCENT SEH 8 01:52:22 05:21 11.21
18 7354 TASSIGNON CORENTIN SEH 9 01:52:37 05:22 11.19
19 7252 DULON OLIVIER V2H 3 01:53:09 05:23 11.14
20 7292 LAMBION HUGUES V1H 7 01:53:49 05:25 11.07
21 7391 MALHERBE BENOIT V1H 8 01:54:10 05:26 11.04
22 7399 LHERMITTE IGOR V1H 9 01:55:11 05:29 10.94
23 7396 JACQUERIE PAUL SEH 10 01:55:23 05:30 10.92
24 7390 PY RAPHAEL SEH 11 01:55:24 05:30 10.92
25 7382 WINTGENS DAVID SEH 12 01:55:34 05:30 10.90
26 7347 SARTELET ARNAUD V1H 10 01:55:36 05:30 10.90
27 7220 CHAPEAU MATHIEU SEH 13 01:55:39 05:30 10.89
28 7237 DEKOSTER DAMIEN V1H 11 01:55:52 05:31 10.87
29 7297 LEGROS GHISLAIN V2H 4 01:56:08 05:32 10.85
30 7378 WENDERS STÉPHANE V1H 12 01:56:27 05:33 10.82
31 7313 MEYSEN TOM SEH 14 01:56:30 05:33 10.82
32 7395 SALMIN LOIC SEH 15 01:58:08 05:38 10.67
33 7392 LANNERS PATRICK XXX   01:58:59 05:40 10.59
34 7299 LEJEUNE CHRISTOPHE V2H 5 02:00:07 05:43 10.49
35 7584 ROSU MELANIE SEF 1 02:00:23 05:44 10.47
36 7320 NOKIN XAVIER V2H 6 02:00:35 05:45 10.45
37 7260 FRERE SEBASTIEN SEH 16 02:00:53 05:45 10.42
38 7273 HANQUET YVES V2H 7 02:00:57 05:46 10.42
39 7386 BOURCY GREGORY SEH 17 02:01:14 05:46 10.39
40 7235 DEGRAVE NADIA SEF 2 02:01:17 05:47 10.39
41 7384 VYNE VANDER SCHOOR N.N. XXX   02:01:18 05:47 10.39
42 7333 PONCELET STÉPHAN V2H 8 02:01:42 05:48 10.35
43 7394 FRANCOIS THIBAUT SEH 18 02:02:17 05:49 10.30
44 7283 HOUCHARD STÉPHANE SEH 19 02:02:38 05:50 10.27
45 7311 MELOTTE JORIS SEH 20 02:02:43 05:51 10.27
46 7255 EICH THIBAUT SEH 21 02:02:46 05:51 10.26
47 7293 LARUELLE DAMIEN SEH 22 02:02:52 05:51 10.26
48 7287 JAMART GUILLAUME SEH 23 02:03:43 05:53 10.18
49 7265 GHYSELS NATHAN ESPH 2 02:04:14 05:55 10.14
50 7221 CISILIA MATHIEU V1H 13 02:04:27 05:56 10.12
51 7327 PICHEL YVES V1H 14 02:04:29 05:56 10.12
52 7398 CHARLIER JEAN-FRANCOIS SEH 24 02:05:43 05:59 10.02
53 7338 RENQUIN PIERRE-YVES SEH 25 02:05:53 06:00 10.01
54 7246 DIEUDONNE MICHEL V2H 9 02:05:58 06:00 10.00
55 7307 MAGONETTE XAVIER V1H 15 02:06:48 06:02 9.94
56 7325 PAUWELS MICHAEL SEH 26 02:06:50 06:02 9.93
57 7351 SCHRYNEMACKERS QUENTIN SEH 27 02:07:30 06:04 9.88
58 7248 DONY OLIVIER V1H 16 02:07:33 06:04 9.88
59 7242 DESCAMPS XAVIER V2H 10 02:08:42 06:08 9.79
60 7213 BOSTEN ARMIN SEH 28 02:09:05 06:09 9.76
61 7331 PIRSON ADRIEN SEH 29 02:10:34 06:13 9.65
62 7231 DAUBY ELISABETH SEF 3 02:10:59 06:14 9.62
63 7356 THONNARD SÉVERINE SEF 4 02:11:13 06:15 9.60
64 7253 DUPONT LIONEL V1H 17 02:11:16 06:15 9.60
65 7342 ROSA HUGUES V1H 18 02:11:25 06:15 9.59
66 7232 DE MEESTER VALENTIN SEH 30 02:11:50 06:17 9.56
67 7291 LAHAUT STEVE SEH 31 02:12:43 06:19 9.49
68 7201 AERTS KATRIEN V1F 1 02:13:22 06:21 9.45
69 7241 DENIS NATHALIE V2F 1 02:13:27 06:21 9.44
70 7247 DOHMEN ARNAUD SEH 32 02:13:32 06:22 9.44
71 7279 HERZET JULIEN SEH 33 02:13:37 06:22 9.43
72 7216 BRULS OLIVIER V1H 19 02:15:03 06:26 9.33
73 7290 KRIESHER GUILLAUME SEH 34 02:15:19 06:27 9.31
74 7233 DEBIOLLE VINCENT V2H 11 02:15:44 06:28 9.28
75 7367 VANDEWEYER STEF SEH 35 02:16:12 06:29 9.25
76 7343 ROUSSEAUX RACHEL SEF 5 02:17:09 06:32 9.19
77 7364 VANDENBOGAERDE REGINALD SEH 36 02:17:27 06:33 9.17
78 7285 JACOBY SYLVAIN SEH 37 02:17:32 06:33 9.16
79 7284 JACOBS FABIEN V2H 12 02:17:32 06:33 9.16
80 7230 CUIPERS GUILLAUME SEH 38 02:17:34 06:33 9.16
81 7583 HENNEN OLIVIER V1H 20 02:17:36 06:33 9.16
82 7344 ROYEN JULIEN SEH 39 02:17:40 06:33 9.15
83 7323 PAQUAY MARC V1H 21 02:17:43 06:33 9.15
84 7377 WATAR FRANCIS V1H 22 02:17:47 06:34 9.14
85 7295 LECLERCQ BENJAMIN V1H 23 02:18:18 06:35 9.11
86 7251 DUJEUX JEROME SEH 40 02:19:29 06:39 9.03
87 7349 SCHMITZ STEPHANIE SEF 6 02:19:29 06:39 9.03
88 7266 GIACCHETTA STÉPHANE V1H 24 02:19:51 06:40 9.01
89 7262 GASPARINI RÉMY SEH 41 02:20:16 06:41 8.98
90 7372 VERCRUYSSE GUILLAUME SEH 42 02:20:17 06:41 8.98
91 7272 HAAN SEVERINE V1F 2 02:20:23 06:41 8.98
92 7580 TREVISSON DOMINIQUE V2F 2 02:20:57 06:43 8.94
93 7288 KITTEL CHRISTOPH SEH 43 02:20:58 06:43 8.94
94 7210 BLONDEEL VINCENT SEH 44 02:21:00 06:43 8.94
95 7225 COP THOMAS SEH 45 02:21:04 06:43 8.93
96 7259 FORÊT GRÉGORY V2H 13 02:21:42 06:45 8.89
97 7218 CAVRENNE SÉBASTIEN V1H 25 02:21:57 06:46 8.88
98 7381 WILMET BENOIT V2H 14 02:22:02 06:46 8.87
99 7341 ROOMANS CHRISTIAN V2H 15 02:22:03 06:46 8.87
100 7370 VANWYNSBERGHE BERNARD V3H 1 02:22:18 06:47 8.85
101 7204 BASTOGNE LOUIS SEH 46 02:23:37 06:50 8.77
102 7329 PIERRE LIONEL V3H 2 02:23:40 06:50 8.77
103 7336 RAYMAEKERS LUC V2H 16 02:24:41 06:53 8.71
104 7362 VANCAMPENHOUT HÉLÈNE SEF 7 02:24:51 06:54 8.70
105 7355 TERRACCIANO FRANCESCO SEH 47 02:25:25 06:55 8.66
106 7239 DELVAUX GREGORY V1H 26 02:25:44 06:56 8.65
107 7368 VANHOOLANT OCÉANE SEF 8 02:25:54 06:57 8.64
108 7374 VERSTRAETE PATRICK V2H 17 02:26:33 06:59 8.60
109 7258 FLORENT DELREZ SEH 48 02:26:43 06:59 8.59
110 7330 PIRLOT BERNARD V1H 27 02:28:06 07:03 8.51
111 7400 DELARBRE PATRICK V1H 28 02:28:22 07:04 8.49
112 7328 PICHEL THÉO CAH 1 02:29:33 07:07 8.43
113 7585 RAVET MARC SEH 49 02:29:48 07:08 8.41
114 7389 CICCARELLA TOWY V1H 29 02:30:42 07:11 8.36
115 7309 MARMIGNON ARY SEH 50 02:30:59 07:11 8.35
116 7223 COLLARD PASCAL V2H 18 02:31:51 07:14 8.30
117 7267 GIACOMELLI EMMANUELLE V2F 3 02:31:52 07:14 8.30
118 7257 ENGLEBERT LIONEL SEH 51 02:31:54 07:14 8.29
119 7222 CLOSJANS RAPHAËL V1H 30 02:32:01 07:14 8.29
120 7238 DELHEZ FLORENTIN SEH 52 02:33:00 07:17 8.24
121 7321 OLIVIERI AMERIGO V4H 1 02:33:22 07:18 8.22
122 7332 PITON DENIS SEH 53 02:35:03 07:23 8.13
123 7206 BELET ARTIUM SEH 54 02:35:12 07:23 8.12
124 7268 GILSON KEVIN SEH 55 02:35:53 07:25 8.08
125 7359 VAN DEN BOSSCHE BRUNO V2H 19 02:38:28 07:33 7.95
126 7282 HOLOFFE DIDIER V4F 1 02:41:01 07:40 7.83
127 7319 NOËL FRANCE V1F 3 02:43:37 07:47 7.70
128 7358 TUTS STÉPHANIE SEF 9 02:43:39 07:48 7.70
129 7298 LEIST SIMON V1H 31 02:43:42 07:48 7.70
130 7352 SMITS DAVID V1H 32 02:43:44 07:48 7.70
131 7228 COURA GIULIA JUF 1 02:43:45 07:48 7.69
132 7289 KOPETZH VALENTINE SEF 10 02:43:47 07:48 7.69
133 7274 HASTIR LUCAS SEH 56 02:43:50 07:48 7.69
134 7373 VERPOORTEN ROGER V4H 2 02:44:57 07:51 7.64
135 7286 JADOULLE STÉPHANIE V1F 4 02:45:22 07:52 7.62
136 7388 CAYIR ALI V1H 33 02:47:57 08:00 7.50
137 7278 HENROTTIN PIERRE V2H 20 02:48:02 08:00 7.50
138 7339 ROBERT DOROTHY V1F 5 02:48:20 08:01 7.49
139 7340 ROBERT YVES V2H 21 02:48:21 08:01 7.48
140 7234 DECUYPER TOM V1H 34 02:48:49 08:02 7.46
141 7303 LEYMAN JASPER SEH 57 02:48:52 08:02 7.46
142 7202 AUGUSTIJNS FILIP V2H 22 02:48:53 08:03 7.46
143 7217 BURLÉON QUENTIN SEH 58 02:50:03 08:06 7.41
144 7316 MULKENS THÉO JUH 1 02:51:43 08:11 7.34
145 7387 TIREN HULYA V1F 6 02:52:00 08:11 7.33
146 7380 WILLIAUME ERIC V1H 35 02:52:47 08:14 7.29
147 7277 HENROTAY FRÉDÉRIC V1H 36 02:52:47 08:14 7.29
148 7310 MAURAGE RAPHAËLLE V1F 7 02:53:06 08:15 7.28
149 7326 PETITJEAN ARNAUD SEH 59 02:53:57 08:17 7.24
150 7371 VERCAMMEN MICHEL V1H 37 02:55:36 08:22 7.18
151 7393 LONNEUX DAMIEN V1H 38 02:55:38 08:22 7.17
152 7261 GABRIEL CÉLIA SEF 11 02:55:39 08:22 7.17
153 7308 MAHIA BÉRANGÈRE V1F 8 02:55:46 08:22 7.17
154 7254 DURELLO VALÉRIE V1F 9 02:56:34 08:24 7.14
155 7322 PAPAVASSILIOU LAËTITIA V1F 10 02:56:37 08:25 7.13
156 7582 RONDELLE QUENTIN SEH 60 02:57:59 08:29 7.08
157 7244 DEVAUX BRICE SEH 61 02:58:15 08:29 7.07
158 7335 RABHIOU OUSSAMA SEH 62 02:59:23 08:33 7.02
159 7357 TULPINCK GISELE V3F 1 02:59:30 08:33 7.02
160 7280 HEYMANS STÉPHANE V2H 23 02:59:52 08:34 7.01
161 7302 LEWKOWICZ EVELYN V2F 4 03:00:53 08:37 6.97
162 7324 PAULAUSKAS IVAN V2H 24 03:01:00 08:37 6.96
163 7229 COUSIN CLAUDE SEH 63 03:02:15 08:41 6.91
164 7363 VANDENABELLE VALÉRIANE SEF 12 03:02:39 08:42 6.90
165 7264 GHERAILLE JEAN-MARC V2H 25 03:02:57 08:43 6.89
166 7385 RAVIGNA PIERRE V3H 3 03:08:18 08:58 6.69
167 7397 BERTHO INGRID V1F 11 03:08:20 08:58 6.69
168 7209 BERTRAND ADRIEN SEH 64 03:08:27 08:58 6.69
169 7250 DUJEUX JULIE SEF 13 03:08:50 09:00 6.67
170 7376 WARNOTTE PATRICK V2H 26 03:23:24 09:41 6.19
               
Nos dernières videos